| time (UTC) | temp F | wind direction | speed MPH | gust MPH | rain 1hr in | rain 24hr in | rain mn in | humidity % | barometer mb |
| 20260502233044 | 68 | 143 | 3.0 | 6.0 | 0.00 | 0.00 | 0.00 | ||
| 20260502230055 | 74 | 301 | 1.0 | 7.0 | 0.00 | 0.00 | 0.00 | ||
| 20260502223035 | 71 | 160 | 2.0 | 6.0 | 0.00 | 0.00 | 0.00 | ||
| 20260502220101 | 68 | 203 | 1.0 | 7.0 | 0.00 | 0.00 | 0.00 | ||
| 20260502213043 | 67 | 171 | 2.0 | 8.0 | 0.00 | 0.00 | 0.00 | ||
| 20260502210053 | 68 | 226 | 1.0 | 4.0 | 0.00 | 0.00 | 0.00 | ||
| 20260502203034 | 68 | 232 | 1.0 | 5.0 | 0.00 | 0.00 | 0.00 | ||
| 20260502200105 | 68 | 318 | 0.0 | 5.0 | 0.00 | 0.00 | 0.00 | ||
| 20260502193043 | 67 | 30 | 1.0 | 3.0 | 0.00 | 0.00 | 0.00 | ||
| 20260502190053 | 64 | 66 | 2.0 | 6.0 | 0.00 | 0.00 | 0.00 | ||
| 20260502163047 | 55 | 84 | 0.0 | 3.0 | 0.00 | 0.00 | 0.00 | ||
| 20260502123033 | 51 | 283 | 0.0 | 2.0 | 0.00 | 0.00 | 0.00 | ||
| 20260502120104 | 51 | 220 | 0.0 | 1.0 | 0.00 | 0.00 | 0.00 | ||
| 20260502113043 | 51 | 202 | 1.0 | 2.0 | 0.00 | 0.00 | 0.00 | ||
| 20260502110050 | 51 | 269 | 0.0 | 1.0 | 0.00 | 0.00 | 0.00 | ||
| 20260502103036 | 51 | 247 | 0.0 | 1.0 | 0.00 | 0.00 | 0.00 | ||
| 20260502100108 | 51 | 236 | 0.0 | 2.0 | 0.00 | 0.00 | 0.00 | ||
| 20260502070112 | 52 | 250 | 1.0 | 2.0 | 0.00 | 0.00 | 0.00 | ||
| 20260502063027 | 52 | 33 | 0.0 | 4.0 | 0.00 | 0.00 | 0.00 | ||
| 20260502060052 | 52 | 214 | 0.0 | 2.0 | 0.00 | 0.00 | 0.00 | ||
| 20260502053051 | 52 | 221 | 1.0 | 4.0 | 0.00 | 0.00 | 0.00 | ||
| 20260502040056 | 53 | 246 | 0.0 | 2.0 | 0.00 | 0.00 | 0.00 | ||
| 20260502033033 | 53 | 261 | 2.0 | 6.0 | 0.00 | 0.00 | 0.00 | ||
| 20260502020059 | 55 | 256 | 3.0 | 9.0 | 0.00 | 0.00 | 0.00 | ||
| 20260502013041 | 57 | 242 | 2.0 | 6.0 | 0.00 | 0.00 | 0.00 | ||
| 20260502010110 | 58 | 263 | 2.0 | 7.0 | 0.00 | 0.00 | 0.00 | ||
| 20260502003051 | 59 | 188 | 3.0 | 9.0 | 0.00 | 0.00 | 0.00 | ||
| 20260502000101 | 60 | 269 | 2.0 | 8.0 | 0.00 | 0.00 | 0.00 |